{"data":{"norad_id":66858,"intl_designator":"2025-281L","name":"STARLINK-35118","alt_names":[],"object_type":"PAYLOAD","status":"ACTIVE","operator":null,"country":"US","launch_date":"2025-12-02","launch_site_code":"AFETR","launch_vehicle":null,"mission":null,"orbit_class":"UNKNOWN","rcs_meters":null,"size_class":null,"mass_kg":null,"dimensions":null,"purposes":["comms"],"wikipedia_slug":null,"has_3d_model":false,"image_url":null,"decayed_at":null,"tle_current":{"epoch":"2026-05-25T01:20:48.385248Z","epoch_age_seconds":73694,"freshness":"FRESH","line1":"1 66858U 25281L   26145.05611557  .00025324  00000+0  92635-3 0  9992","line2":"2 66858  42.9980 272.2942 0001250 289.3255  70.7461 15.27589499 27864","mean_motion":15.27589499,"eccentricity":0.000125,"inclination_deg":42.998,"raan_deg":272.2942,"arg_perigee_deg":289.3255,"mean_anomaly_deg":70.7461,"bstar":0.00092635,"rev_number":2786,"period_min":94.266162535332,"perigee_km":482.1630080572,"apogee_km":483.87829747039,"semimajor_km":6861.1576527638,"source":"CELESTRAK","updated_at":"2026-05-25T13:38:21.341988Z"}}}